Regional Weather Roundup
Issued by NWS

Home | Current Version | Previous Version | Graphics & Text | Print | Product List | Glossary On
Versions: 1 2 3 4 5 6 7 8 9 10 11 12 13 14 15 16 17 18 19 20 21 22 23 24 25 26 27 28 29 30 31 32 33 34 35 36 37 38 39 40 41 42 43 44 45 46 47 48 49 50
000
ASUS43 KLMK 171602
RWRKY
KENTUCKY REGIONAL WEATHER ROUNDUP
NATIONAL WEATHER SERVICE LOUISVILLE KY
1100 AM EST SUN DEC 17 2017

NOTE "FAIR" INDICATES FEW OR NO CLOUDS BELOW 12,000 FEET
WITH NO SIGNIFICANT WEATHER AND/OR OBSTRUCTIONS TO VISIBILITY.

KYZ001>023-026-027-061>063-070>075-171700-
WESTERN AND SOUTH CENTRAL KENTUCKY

CITY           SKY/WX    TMP DP  RH WIND       PRES   REMARKS
PADUCAH        CLOUDY    43  38  82 S3        30.16R
HENDERSON      LGT RAIN  43  37  79 SW6       30.18R
OWENSBORO      CLOUDY    44  35  70 SW6       30.16R
HOPKINSVILLE   CLOUDY    42  39  91 SW6       30.17R
BOWLING GREEN  CLOUDY    44  37  76 S12G20    30.16F
GLASGOW        NOT AVBL
$$

KYZ024-025-028>034-038-045-046-053-171700-
NORTH CENTRAL KENTUCKY

CITY           SKY/WX    TMP DP  RH WIND       PRES   REMARKS
LOUISVILLE/SDF CLOUDY    44  35  70 S8        30.14F
LOUISVILLE/LOU LGT RAIN  44  35  70 SE7       30.16F
FORT KNOX      CLOUDY    43  34  70 SE8       30.12F
$$

KYZ035>037-039>044-047>052-055>060-089>105-171700-
NORTHEAST KENTUCKY

CITY           SKY/WX    TMP DP  RH WIND       PRES   REMARKS
LEXINGTON      CLOUDY    44  30  57 SE10      30.18F
COVINGTON      CLOUDY    42  32  67 S10       30.16R
FRANKFORT      CLOUDY    44  30  57 S7        30.16F
$$

KYZ054-064>069-076>088-106>120-171700-
SOUTHEAST KENTUCKY

CITY           SKY/WX    TMP DP  RH WIND       PRES   REMARKS
JACKSON        CLOUDY    41  27  57 SW3       30.21F
LONDON         CLOUDY    41  31  67 SE5       30.20F
SOMERSET       NOT AVBL
MIDDLESBORO    CLOUDY    36  33  90 CALM      30.26F
MONTICELLO     LGT RAIN  44  33  65 NE7       30.22F
$$





USA.gov is the U.S. government's official web portal to all federal, state and local government web resources and services.